Location: Poznań
(52.4062°N, 16.9234°E)
Time: 16:19:27
(UTC+01:00)

ISS - Pass Details

Date: 01 February 2019
Orbit: 403 x 411 km, 51.6° (Epoch: 19 February)

Event Time Altitude Azimuth Distance (km) Brightness Sun altitude
Rises 18:56:02 0° 276° (W) 2,339 1.6 -21.0°
Reaches altitude 10° 18:58:08 10° 274° (W) 1,478 0.2 -21.3°
Enters shadow 19:00:59 58° 240° (WSW) 487 -3.3 -21.8°
